Time,TemperatureF,DewpointF,PressureIn,WindDirection,WindDirectionDegrees,WindSpeedMPH,WindSpeedGustMPH,Humidity,HourlyPrecipIn,Conditions,Clouds,dailyrainin,SolarRadiationWatts/m^2,SoftwareType,DateUTC
2013-07-02 00:00:00,69.1,61.6,29.91,North,355,0.0,4.0,77,0.00,,,0.01,0.00,VWS V14.01,2013-07-02 05:00:00,
2013-07-02 00:01:00,69.0,61.5,29.91,North,355,0.0,0.0,77,0.00,,,0.00,0.00,VWS V14.01,2013-07-02 05:01:00,
2013-07-02 00:06:00,68.9,61.4,29.91,North,355,1.0,2.0,77,0.00,,,0.00,0.00,VWS V14.01,2013-07-02 05:06:00,
2013-07-02 00:10:00,68.8,61.7,29.91,North,355,0.0,2.0,78,0.00,,,0.00,0.00,VWS V14.01,2013-07-02 05:10:00,
2013-07-02 00:11:00,68.8,61.7,29.91,North,355,1.0,2.0,78,0.00,,,0.00,0.00,VWS V14.01,2013-07-02 05:11:00,
2013-07-02 00:16:00,68.6,61.5,29.91,North,355,0.0,2.0,78,0.00,,,0.00,0.00,VWS V14.01,2013-07-02 05:16:00,
2013-07-02 00:20:00,68.5,61.7,29.91,North,355,0.0,2.0,79,0.00,,,0.00,0.00,VWS V14.01,2013-07-02 05:20:00,
2013-07-02 00:21:00,68.4,61.6,29.90,North,355,0.0,0.0,79,0.00,,,0.00,0.00,VWS V14.01,2013-07-02 05:21:00,
2013-07-02 00:26:00,68.3,61.5,29.90,North,355,0.0,0.0,79,0.00,,,0.00,0.00,VWS V14.01,2013-07-02 05:26:00,
2013-07-02 00:30:00,68.2,61.5,29.90,North,355,0.0,0.0,79,0.00,,,0.00,0.00,VWS V14.01,2013-07-02 05:30:00,
2013-07-02 00:31:00,68.1,61.3,29.90,North,355,0.0,0.0,79,0.00,,,0.00,0.00,VWS V14.01,2013-07-02 05:31:00,
2013-07-02 00:36:00,67.9,61.5,29.90,North,355,0.0,1.0,80,0.00,,,0.00,0.00,VWS V14.01,2013-07-02 05:36:00,
2013-07-02 00:40:00,67.8,61.4,29.90,North,355,0.0,1.0,80,0.00,,,0.00,0.00,VWS V14.01,2013-07-02 05:40:00,
2013-07-02 00:41:00,67.7,61.3,29.90,North,355,0.0,0.0,80,0.00,,,0.00,0.00,VWS V14.01,2013-07-02 05:41:00,
2013-07-02 00:46:00,67.6,61.2,29.90,North,355,0.0,0.0,80,0.00,,,0.00,0.00,VWS V14.01,2013-07-02 05:46:00,
2013-07-02 00:50:00,67.5,61.5,29.90,North,355,0.0,0.0,81,0.00,,,0.00,0.00,VWS V14.01,2013-07-02 05:50:00,
2013-07-02 00:51:00,67.5,61.5,29.90,North,355,0.0,0.0,81,0.00,,,0.00,0.00,VWS V14.01,2013-07-02 05:51:00,
2013-07-02 00:56:00,67.4,61.4,29.90,North,355,0.0,0.0,81,0.00,,,0.00,0.00,VWS V14.01,2013-07-02 05:56:00,
2013-07-02 01:00:00,67.3,61.3,29.90,North,355,0.0,0.0,81,0.00,,,0.00,0.00,VWS V14.01,2013-07-02 06:00:00,
2013-07-02 01:01:00,67.2,61.2,29.90,North,355,0.0,0.0,81,0.00,,,0.00,0.00,VWS V14.01,2013-07-02 06:01:00,
2013-07-02 01:06:00,67.1,61.4,29.90,North,355,0.0,0.0,82,0.00,,,0.00,0.00,VWS V14.01,2013-07-02 06:06:00,
2013-07-02 01:10:00,67.0,61.3,29.89,North,355,0.0,0.0,82,0.00,,,0.00,0.00,VWS V14.01,2013-07-02 06:10:00,
2013-07-02 01:11:00,66.9,61.2,29.90,North,355,0.0,0.0,82,0.00,,,0.00,0.00,VWS V14.01,2013-07-02 06:11:00,
2013-07-02 01:16:00,66.7,61.4,29.90,North,355,0.0,0.0,83,0.00,,,0.00,0.00,VWS V14.01,2013-07-02 06:16:00,
2013-07-02 01:20:00,66.6,61.3,29.89,North,355,0.0,0.0,83,0.00,,,0.00,0.00,VWS V14.01,2013-07-02 06:20:00,
2013-07-02 01:21:00,66.5,61.2,29.89,North,355,0.0,0.0,83,0.00,,,0.00,0.00,VWS V14.01,2013-07-02 06:21:00,
2013-07-02 01:26:00,66.3,61.3,29.90,North,355,0.0,0.0,84,0.00,,,0.00,0.00,VWS V14.01,2013-07-02 06:26:00,
2013-07-02 01:30:00,66.2,61.2,29.90,North,355,0.0,0.0,84,0.00,,,0.00,0.00,VWS V14.01,2013-07-02 06:30:00,
2013-07-02 01:31:00,66.2,61.2,29.90,North,355,0.0,0.0,84,0.00,,,0.00,0.00,VWS V14.01,2013-07-02 06:31:00,
2013-07-02 01:36:00,66.0,61.0,29.90,North,355,0.0,0.0,84,0.00,,,0.00,0.00,VWS V14.01,2013-07-02 06:36:00,
2013-07-02 01:40:00,65.9,61.3,29.90,North,355,0.0,0.0,85,0.00,,,0.00,0.00,VWS V14.01,2013-07-02 06:40:00,
2013-07-02 01:41:00,65.8,61.2,29.90,North,355,0.0,0.0,85,0.00,,,0.00,0.00,VWS V14.01,2013-07-02 06:41:00,
2013-07-02 01:46:00,65.7,61.4,29.90,North,355,0.0,0.0,86,0.00,,,0.00,0.00,VWS V14.01,2013-07-02 06:46:00,
2013-07-02 01:50:00,65.6,61.3,29.90,North,355,0.0,0.0,86,0.00,,,0.00,0.00,VWS V14.01,2013-07-02 06:50:00,
2013-07-02 01:51:00,65.6,61.3,29.90,North,355,0.0,0.0,86,0.00,,,0.00,0.00,VWS V14.01,2013-07-02 06:51:00,
2013-07-02 01:56:00,65.4,61.1,29.90,North,355,0.0,0.0,86,0.00,,,0.00,0.00,VWS V14.01,2013-07-02 06:56:00,
2013-07-02 02:00:00,65.4,61.4,29.89,North,355,0.0,0.0,87,0.00,,,0.00,0.00,VWS V14.01,2013-07-02 07:00:00,
2013-07-02 02:01:00,65.3,61.3,29.89,North,355,0.0,0.0,87,0.00,,,0.00,0.00,VWS V14.01,2013-07-02 07:01:00,
2013-07-02 02:06:00,65.2,61.2,29.89,North,355,0.0,0.0,87,0.00,,,0.00,0.00,VWS V14.01,2013-07-02 07:06:00,
2013-07-02 02:10:00,65.1,61.1,29.89,North,355,0.0,0.0,87,0.00,,,0.00,0.00,VWS V14.01,2013-07-02 07:10:00,
2013-07-02 02:11:00,65.2,61.2,29.89,North,355,0.0,0.0,87,0.00,,,0.00,0.00,VWS V14.01,2013-07-02 07:11:00,
2013-07-02 02:16:00,65.2,61.6,29.89,North,355,0.0,1.0,88,0.00,,,0.00,0.00,VWS V14.01,2013-07-02 07:16:00,
2013-07-02 02:20:00,65.2,61.6,29.89,North,355,0.0,1.0,88,0.00,,,0.00,0.00,VWS V14.01,2013-07-02 07:20:00,
2013-07-02 02:21:00,65.3,61.7,29.89,North,355,0.0,0.0,88,0.00,,,0.00,0.00,VWS V14.01,2013-07-02 07:21:00,
2013-07-02 02:26:00,65.3,61.7,29.89,North,355,0.0,1.0,88,0.00,,,0.00,0.00,VWS V14.01,2013-07-02 07:26:00,
2013-07-02 02:30:00,65.4,62.1,29.89,North,355,0.0,1.0,89,0.00,,,0.00,0.00,VWS V14.01,2013-07-02 07:30:00,
2013-07-02 02:31:00,65.4,62.1,29.89,North,355,2.0,3.0,89,0.00,,,0.00,0.00,VWS V14.01,2013-07-02 07:31:00,
2013-07-02 02:36:00,65.7,62.4,29.89,North,355,1.0,3.0,89,0.00,,,0.00,0.00,VWS V14.01,2013-07-02 07:36:00,
2013-07-02 02:40:00,65.9,62.6,29.89,North,355,1.0,4.0,89,0.00,,,0.00,0.00,VWS V14.01,2013-07-02 07:40:00,
2013-07-02 02:41:00,66.0,62.3,29.89,North,355,3.0,3.0,88,0.00,,,0.00,0.00,VWS V14.01,2013-07-02 07:41:00,
2013-07-02 02:46:00,66.3,62.6,29.89,North,355,3.0,4.0,88,0.00,,,0.00,0.00,VWS V14.01,2013-07-02 07:46:00,
2013-07-02 02:50:00,66.4,62.4,29.89,North,349,4.0,5.0,87,0.00,,,0.00,0.00,VWS V14.01,2013-07-02 07:50:00,
2013-07-02 02:51:00,66.4,62.4,29.89,North,349,3.0,4.0,87,0.00,,,0.00,0.00,VWS V14.01,2013-07-02 07:51:00,
2013-07-02 02:56:00,66.5,62.2,29.89,NNW,346,1.0,4.0,86,0.00,,,0.00,0.00,VWS V14.01,2013-07-02 07:56:00,
2013-07-02 03:00:00,66.5,62.2,29.88,NNW,347,3.0,6.0,86,0.00,,,0.00,0.00,VWS V14.01,2013-07-02 08:00:00,
2013-07-02 03:01:00,66.5,62.2,29.89,WNW,292,5.0,5.0,86,0.00,,,0.00,0.00,VWS V14.01,2013-07-02 08:01:00,
2013-07-02 03:06:00,66.5,61.9,29.89,WNW,288,4.0,7.0,85,0.00,,,0.00,0.00,VWS V14.01,2013-07-02 08:06:00,
2013-07-02 03:10:00,66.5,61.5,29.88,WNW,300,5.0,8.0,84,0.00,,,0.00,0.00,VWS V14.01,2013-07-02 08:10:00,
2013-07-02 03:11:00,66.6,61.6,29.88,WNW,295,5.0,5.0,84,0.00,,,0.00,0.00,VWS V14.01,2013-07-02 08:11:00,
2013-07-02 03:16:00,66.7,61.7,29.89,NW,320,5.0,7.0,84,0.00,,,0.00,0.00,VWS V14.01,2013-07-02 08:16:00,
2013-07-02 03:20:00,66.7,61.7,29.89,NW,314,3.0,7.0,84,0.00,,,0.00,0.00,VWS V14.01,2013-07-02 08:20:00,
2013-07-02 03:21:00,66.7,61.7,29.89,NNW,334,5.0,5.0,84,0.00,,,0.00,0.00,VWS V14.01,2013-07-02 08:21:00,
2013-07-02 03:26:00,66.6,61.3,29.89,NW,304,8.0,8.0,83,0.00,,,0.00,0.00,VWS V14.01,2013-07-02 08:26:00,
2013-07-02 03:30:00,66.6,61.3,29.89,NW,321,5.0,9.0,83,0.00,,,0.00,0.00,VWS V14.01,2013-07-02 08:30:00,
2013-07-02 03:31:00,66.5,61.2,29.89,NW,325,3.0,8.0,83,0.00,,,0.00,0.00,VWS V14.01,2013-07-02 08:31:00,
2013-07-02 03:36:00,66.5,61.5,29.89,NW,325,4.0,8.0,84,0.00,,,0.00,0.00,VWS V14.01,2013-07-02 08:36:00,
2013-07-02 03:40:00,66.4,61.4,29.89,North,355,4.0,8.0,84,0.00,,,0.00,0.00,VWS V14.01,2013-07-02 08:40:00,
2013-07-02 03:41:00,66.4,61.4,29.89,NW,317,3.0,5.0,84,0.00,,,0.00,0.00,VWS V14.01,2013-07-02 08:41:00,
2013-07-02 03:46:00,66.3,61.3,29.89,NW,321,2.0,6.0,84,0.00,,,0.00,0.00,VWS V14.01,2013-07-02 08:46:00,
2013-07-02 03:50:00,66.2,61.2,29.89,NW,311,4.0,6.0,84,0.00,,,0.00,0.00,VWS V14.01,2013-07-02 08:50:00,
2013-07-02 03:51:00,66.2,61.2,29.89,NW,311,3.0,4.0,84,0.00,,,0.00,0.00,VWS V14.01,2013-07-02 08:51:00,
2013-07-02 03:57:00,66.1,61.1,29.89,NW,311,2.0,5.0,84,0.00,,,0.00,0.00,VWS V14.01,2013-07-02 08:57:00,
2013-07-02 04:00:00,66.0,61.4,29.89,NW,311,3.0,5.0,85,0.00,,,0.00,0.00,VWS V14.01,2013-07-02 09:00:00,
2013-07-02 04:01:00,66.0,61.4,29.89,NW,311,2.0,4.0,85,0.00,,,0.00,0.00,VWS V14.01,2013-07-02 09:01:00,
2013-07-02 04:07:00,65.9,61.3,29.89,NW,309,2.0,5.0,85,0.00,,,0.00,0.00,VWS V14.01,2013-07-02 09:07:00,
2013-07-02 04:10:00,65.8,61.2,29.89,NW,308,2.0,5.0,85,0.00,,,0.00,0.00,VWS V14.01,2013-07-02 09:10:00,
2013-07-02 04:12:00,65.7,61.1,29.89,NW,309,2.0,3.0,85,0.00,,,0.00,0.00,VWS V14.01,2013-07-02 09:12:00,
2013-07-02 04:17:00,65.6,61.0,29.89,NW,309,3.0,4.0,85,0.00,,,0.00,0.00,VWS V14.01,2013-07-02 09:17:00,
2013-07-02 04:20:00,65.5,60.9,29.89,NW,308,4.0,5.0,85,0.00,,,0.00,0.00,VWS V14.01,2013-07-02 09:20:00,
2013-07-02 04:21:00,65.5,61.2,29.89,NW,309,3.0,4.0,86,0.00,,,0.00,0.00,VWS V14.01,2013-07-02 09:21:00,
2013-07-02 04:27:00,65.4,61.1,29.90,NW,309,1.0,4.0,86,0.00,,,0.00,0.00,VWS V14.01,2013-07-02 09:27:00,
2013-07-02 04:30:00,65.5,61.2,29.89,NW,309,0.0,4.0,86,0.00,,,0.00,0.00,VWS V14.01,2013-07-02 09:30:00,
2013-07-02 04:32:00,65.5,61.2,29.90,NW,309,1.0,1.0,86,0.00,,,0.00,0.00,VWS V14.01,2013-07-02 09:32:00,
2013-07-02 04:37:00,65.4,61.1,29.90,NW,309,0.0,2.0,86,0.00,,,0.00,0.00,VWS V14.01,2013-07-02 09:37:00,
2013-07-02 04:40:00,65.4,61.1,29.90,NW,309,3.0,3.0,86,0.00,,,0.00,0.00,VWS V14.01,2013-07-02 09:40:00,
2013-07-02 04:42:00,65.4,61.1,29.90,NW,309,1.0,3.0,86,0.00,,,0.00,0.00,VWS V14.01,2013-07-02 09:42:00,
2013-07-02 04:47:00,65.4,61.1,29.90,NW,309,0.0,3.0,86,0.00,,,0.00,0.00,VWS V14.01,2013-07-02 09:47:00,
2013-07-02 04:50:00,65.3,61.0,29.90,NW,309,0.0,3.0,86,0.00,,,0.00,0.00,VWS V14.01,2013-07-02 09:50:00,
2013-07-02 04:52:00,65.2,60.9,29.90,NW,309,0.0,1.0,86,0.00,,,0.00,0.00,VWS V14.01,2013-07-02 09:52:00,
2013-07-02 04:57:00,65.1,61.1,29.91,NW,309,0.0,4.0,87,0.00,,,0.00,0.00,VWS V14.01,2013-07-02 09:57:00,
2013-07-02 05:00:00,65.0,61.0,29.91,NW,309,3.0,4.0,87,0.00,,,0.00,0.00,VWS V14.01,2013-07-02 10:00:00,
2013-07-02 05:02:00,65.0,61.0,29.91,NW,309,0.0,3.0,87,0.00,,,0.00,0.00,VWS V14.01,2013-07-02 10:02:00,
2013-07-02 05:07:00,64.8,60.8,29.91,NW,309,2.0,3.0,87,0.00,,,0.00,0.00,VWS V14.01,2013-07-02 10:07:00,
2013-07-02 05:10:00,64.8,60.8,29.91,NW,309,2.0,3.0,87,0.00,,,0.00,0.00,VWS V14.01,2013-07-02 10:10:00,
2013-07-02 05:12:00,64.8,60.8,29.91,NW,309,0.0,2.0,87,0.00,,,0.00,0.00,VWS V14.01,2013-07-02 10:12:00,
2013-07-02 05:17:00,64.8,60.8,29.91,NW,309,1.0,2.0,87,0.00,,,0.00,0.00,VWS V14.01,2013-07-02 10:17:00,
2013-07-02 05:20:00,64.7,61.1,29.91,NW,309,1.0,2.0,88,0.00,,,0.00,0.00,VWS V14.01,2013-07-02 10:20:00,
2013-07-02 05:22:00,64.7,61.1,29.91,NW,309,1.0,3.0,88,0.00,,,0.00,0.00,VWS V14.01,2013-07-02 10:22:00,
2013-07-02 05:27:00,64.6,61.0,29.91,NW,309,0.0,3.0,88,0.00,,,0.00,0.00,VWS V14.01,2013-07-02 10:27:00,
2013-07-02 05:30:00,64.5,60.9,29.91,NW,309,0.0,3.0,88,0.00,,,0.00,0.00,VWS V14.01,2013-07-02 10:30:00,
2013-07-02 05:32:00,64.5,60.9,29.91,NW,309,0.0,0.0,88,0.00,,,0.00,0.00,VWS V14.01,2013-07-02 10:32:00,
2013-07-02 05:37:00,64.5,60.9,29.92,NW,309,0.0,2.0,88,0.00,,,0.00,0.00,VWS V14.01,2013-07-02 10:37:00,
2013-07-02 05:40:00,64.4,60.8,29.92,NW,309,0.0,2.0,88,0.00,,,0.00,0.00,VWS V14.01,2013-07-02 10:40:00,
2013-07-02 05:42:00,64.4,61.1,29.92,NW,309,0.0,1.0,89,0.00,,,0.00,0.00,VWS V14.01,2013-07-02 10:42:00,
2013-07-02 05:47:00,64.4,60.8,29.92,NW,309,0.0,1.0,88,0.00,,,0.00,0.00,VWS V14.01,2013-07-02 10:47:00,
2013-07-02 05:50:00,64.4,61.1,29.92,NW,309,0.0,1.0,89,0.00,,,0.00,0.00,VWS V14.01,2013-07-02 10:50:00,
2013-07-02 05:52:00,64.4,61.1,29.92,NW,309,0.0,3.0,89,0.00,,,0.00,5.00,VWS V14.01,2013-07-02 10:52:00,
2013-07-02 05:57:00,64.3,61.0,29.93,NW,306,1.0,3.0,89,0.00,,,0.00,7.00,VWS V14.01,2013-07-02 10:57:00,
2013-07-02 06:00:00,64.4,61.1,29.93,NW,306,0.0,3.0,89,0.00,,,0.00,9.00,VWS V14.01,2013-07-02 11:00:00,
2013-07-02 06:02:00,64.3,61.0,29.93,NW,306,1.0,1.0,89,0.00,,,0.00,11.00,VWS V14.01,2013-07-02 11:02:00,
2013-07-02 06:07:00,64.3,61.0,29.93,NW,306,0.0,1.0,89,0.00,,,0.00,14.00,VWS V14.01,2013-07-02 11:07:00,
2013-07-02 06:10:00,64.3,61.0,29.93,NW,306,0.0,1.0,89,0.00,,,0.00,18.00,VWS V14.01,2013-07-02 11:10:00,
2013-07-02 06:12:00,64.3,61.0,29.93,NW,306,0.0,0.0,89,0.00,,,0.00,21.00,VWS V14.01,2013-07-02 11:12:00,
2013-07-02 06:17:00,64.3,61.0,29.93,NW,306,0.0,0.0,89,0.00,,,0.00,28.00,VWS V14.01,2013-07-02 11:17:00,
2013-07-02 06:20:00,64.3,61.0,29.94,NW,306,0.0,0.0,89,0.00,,,0.00,33.00,VWS V14.01,2013-07-02 11:20:00,
2013-07-02 06:22:00,64.3,61.0,29.93,NW,306,0.0,1.0,89,0.00,,,0.00,37.00,VWS V14.01,2013-07-02 11:22:00,
2013-07-02 06:27:00,64.3,61.3,29.93,NW,306,0.0,1.0,90,0.00,,,0.00,46.00,VWS V14.01,2013-07-02 11:27:00,
2013-07-02 06:30:00,64.3,61.3,29.94,NW,306,0.0,1.0,90,0.00,,,0.00,51.00,VWS V14.01,2013-07-02 11:30:00,
2013-07-02 06:32:00,64.4,61.4,29.94,NW,306,0.0,0.0,90,0.00,,,0.00,58.00,VWS V14.01,2013-07-02 11:32:00,
2013-07-02 06:37:00,64.7,61.7,29.94,NW,306,0.0,0.0,90,0.00,,,0.00,67.00,VWS V14.01,2013-07-02 11:37:00,
2013-07-02 06:40:00,64.9,61.9,29.94,NW,306,0.0,1.0,90,0.00,,,0.00,74.00,VWS V14.01,2013-07-02 11:40:00,
2013-07-02 06:42:00,65.1,62.1,29.94,NW,306,0.0,0.0,90,0.00,,,0.00,79.00,VWS V14.01,2013-07-02 11:42:00,
2013-07-02 06:47:00,65.5,62.5,29.94,NW,306,0.0,1.0,90,0.00,,,0.00,91.00,VWS V14.01,2013-07-02 11:47:00,
2013-07-02 06:50:00,65.8,62.8,29.94,NW,306,0.0,2.0,90,0.00,,,0.00,102.00,VWS V14.01,2013-07-02 11:50:00,
2013-07-02 06:52:00,65.9,62.9,29.94,NW,306,0.0,1.0,90,0.00,,,0.00,107.00,VWS V14.01,2013-07-02 11:52:00,
2013-07-02 06:57:00,66.3,63.0,29.94,NW,306,0.0,2.0,89,0.00,,,0.00,125.00,VWS V14.01,2013-07-02 11:57:00,
2013-07-02 07:00:00,66.6,63.3,29.94,South,178,0.0,2.0,89,0.00,,,0.00,134.00,VWS V14.01,2013-07-02 12:00:00,
2013-07-02 07:02:00,66.7,63.4,29.94,South,179,0.0,0.0,89,0.00,,,0.00,139.00,VWS V14.01,2013-07-02 12:02:00,
2013-07-02 07:07:00,67.2,63.5,29.94,South,184,0.0,1.0,88,0.00,,,0.00,156.00,VWS V14.01,2013-07-02 12:07:00,
2013-07-02 07:10:00,67.4,63.4,29.95,South,189,0.0,1.0,87,0.00,,,0.00,167.00,VWS V14.01,2013-07-02 12:10:00,
2013-07-02 07:12:00,67.5,63.5,29.94,South,189,0.0,1.0,87,0.00,,,0.00,174.00,VWS V14.01,2013-07-02 12:12:00,
2013-07-02 07:17:00,67.9,63.6,29.94,South,190,1.0,2.0,86,0.00,,,0.00,192.00,VWS V14.01,2013-07-02 12:17:00,
2013-07-02 07:20:00,68.2,63.9,29.95,South,190,0.0,2.0,86,0.00,,,0.00,202.00,VWS V14.01,2013-07-02 12:20:00,
2013-07-02 07:22:00,68.4,63.7,29.95,South,190,0.0,0.0,85,0.00,,,0.00,209.00,VWS V14.01,2013-07-02 12:22:00,
2013-07-02 07:27:00,68.9,63.9,29.95,South,190,0.0,2.0,84,0.00,,,0.00,223.00,VWS V14.01,2013-07-02 12:27:00,
2013-07-02 07:30:00,69.3,63.9,29.95,SSW,195,1.0,2.0,83,0.00,,,0.00,234.00,VWS V14.01,2013-07-02 12:30:00,
2013-07-02 07:32:00,69.4,63.7,29.95,SSW,195,2.0,2.0,82,0.00,,,0.00,241.00,VWS V14.01,2013-07-02 12:32:00,
2013-07-02 07:37:00,69.9,63.8,29.95,SW,230,1.0,4.0,81,0.00,,,0.00,257.00,VWS V14.01,2013-07-02 12:37:00,
2013-07-02 07:40:00,70.1,63.7,29.95,WSW,245,0.0,4.0,80,0.00,,,0.00,262.00,VWS V14.01,2013-07-02 12:40:00,
2013-07-02 07:42:00,70.2,63.8,29.95,WSW,245,0.0,3.0,80,0.00,,,0.00,267.00,VWS V14.01,2013-07-02 12:42:00,
2013-07-02 07:47:00,70.5,63.7,29.95,WNW,284,1.0,4.0,79,0.00,,,0.00,283.00,VWS V14.01,2013-07-02 12:47:00,
2013-07-02 07:50:00,70.6,63.8,29.95,West,281,1.0,4.0,79,0.00,,,0.00,288.00,VWS V14.01,2013-07-02 12:50:00,
2013-07-02 07:52:00,70.8,64.0,29.95,West,281,3.0,4.0,79,0.00,,,0.00,294.00,VWS V14.01,2013-07-02 12:52:00,
2013-07-02 07:58:00,70.8,63.6,29.95,West,280,1.0,4.0,78,0.00,,,0.00,313.00,VWS V14.01,2013-07-02 12:58:00,
2013-07-02 08:00:00,71.0,63.8,29.95,West,280,1.0,4.0,78,0.00,,,0.00,323.00,VWS V14.01,2013-07-02 13:00:00,
2013-07-02 08:02:00,71.3,64.1,29.95,West,280,2.0,2.0,78,0.00,,,0.00,330.00,VWS V14.01,2013-07-02 13:02:00,
2013-07-02 08:07:00,71.5,63.2,29.95,WNW,298,8.0,9.0,75,0.00,,,0.00,343.00,VWS V14.01,2013-07-02 13:07:00,
2013-07-02 08:08:00,71.5,63.2,29.95,WNW,298,7.0,9.0,75,0.00,,,0.00,343.00,VWS V14.01,2013-07-02 13:08:00,
2013-07-02 08:10:00,71.6,63.3,29.95,WNW,297,2.0,9.0,75,0.00,,,0.00,348.00,VWS V14.01,2013-07-02 13:10:00,
2013-07-02 08:13:00,71.7,63.0,29.95,WNW,298,2.0,5.0,74,0.00,,,0.00,353.00,VWS V14.01,2013-07-02 13:13:00,
2013-07-02 08:18:00,72.1,63.4,29.95,WSW,244,1.0,5.0,74,0.00,,,0.00,371.00,VWS V14.01,2013-07-02 13:18:00,
2013-07-02 08:20:00,72.2,63.1,29.95,WNW,287,4.0,6.0,73,0.00,,,0.00,378.00,VWS V14.01,2013-07-02 13:20:00,
2013-07-02 08:23:00,72.6,63.5,29.95,WNW,286,4.0,8.0,73,0.00,,,0.00,381.00,VWS V14.01,2013-07-02 13:23:00,
2013-07-02 08:28:00,73.0,63.5,29.95,WNW,285,3.0,8.0,72,0.00,,,0.00,397.00,VWS V14.01,2013-07-02 13:28:00,
2013-07-02 08:30:00,73.1,63.5,29.95,NW,319,4.0,8.0,72,0.00,,,0.00,406.00,VWS V14.01,2013-07-02 13:30:00,
2013-07-02 08:32:00,73.2,63.6,29.95,NW,307,2.0,5.0,72,0.00,,,0.00,410.00,VWS V14.01,2013-07-02 13:32:00,
2013-07-02 08:37:00,73.7,63.3,29.95,WNW,285,1.0,6.0,70,0.00,,,0.00,424.00,VWS V14.01,2013-07-02 13:37:00,
2013-07-02 08:40:00,74.0,63.6,29.95,WNW,284,2.0,6.0,70,0.00,,,0.00,429.00,VWS V14.01,2013-07-02 13:40:00,
2013-07-02 08:42:00,74.3,63.9,29.96,WNW,284,1.0,2.0,70,0.00,,,0.00,441.00,VWS V14.01,2013-07-02 13:42:00,
2013-07-02 08:48:00,74.9,64.1,29.96,WNW,284,1.0,6.0,69,0.00,,,0.00,459.00,VWS V14.01,2013-07-02 13:48:00,
2013-07-02 08:50:00,75.0,63.7,29.96,WNW,290,3.0,6.0,68,0.00,,,0.00,469.00,VWS V14.01,2013-07-02 13:50:00,
2013-07-02 08:53:00,75.1,63.0,29.96,WNW,288,6.0,7.0,66,0.00,,,0.00,478.00,VWS V14.01,2013-07-02 13:53:00,
2013-07-02 08:57:00,75.0,63.3,29.96,WNW,295,2.0,7.0,67,0.00,,,0.00,490.00,VWS V14.01,2013-07-02 13:57:00,
2013-07-02 09:00:00,75.1,63.4,29.96,West,280,5.0,7.0,67,0.00,,,0.00,501.00,VWS V14.01,2013-07-02 14:00:00,
2013-07-02 09:03:00,75.2,63.1,29.96,WNW,292,6.0,9.0,66,0.00,,,0.00,508.00,VWS V14.01,2013-07-02 14:03:00,
2013-07-02 09:08:00,75.4,62.8,29.96,WSW,247,2.0,9.0,65,0.00,,,0.00,517.00,VWS V14.01,2013-07-02 14:08:00,
2013-07-02 09:10:00,75.7,63.1,29.96,West,267,3.0,9.0,65,0.00,,,0.00,533.00,VWS V14.01,2013-07-02 14:10:00,
2013-07-02 09:13:00,75.9,63.7,29.96,West,260,3.0,4.0,66,0.00,,,0.00,547.00,VWS V14.01,2013-07-02 14:13:00,
2013-07-02 09:17:00,76.3,63.7,29.97,West,280,1.0,4.0,65,0.00,,,0.00,552.00,VWS V14.01,2013-07-02 14:17:00,
2013-07-02 09:20:00,76.5,63.4,29.96,WNW,291,0.0,5.0,64,0.00,,,0.00,554.00,VWS V14.01,2013-07-02 14:20:00,
2013-07-02 09:22:00,76.7,63.6,29.96,WNW,283,2.0,3.0,64,0.00,,,0.00,577.00,VWS V14.01,2013-07-02 14:22:00,
2013-07-02 09:27:00,77.3,63.3,29.97,WNW,293,1.0,6.0,62,0.00,,,0.00,589.00,VWS V14.01,2013-07-02 14:27:00,
2013-07-02 09:30:00,77.4,63.8,29.96,WNW,300,1.0,7.0,63,0.00,,,0.00,596.00,VWS V14.01,2013-07-02 14:30:00,
2013-07-02 09:33:00,77.1,63.1,29.96,WNW,299,0.0,2.0,62,0.00,,,0.00,610.00,VWS V14.01,2013-07-02 14:33:00,
2013-07-02 09:38:00,77.2,63.6,29.96,WNW,289,3.0,6.0,63,0.00,,,0.00,622.00,VWS V14.01,2013-07-02 14:38:00,
2013-07-02 09:40:00,77.4,63.4,29.96,WSW,254,4.0,6.0,62,0.00,,,0.00,633.00,VWS V14.01,2013-07-02 14:40:00,
2013-07-02 09:43:00,77.7,63.7,29.96,WNW,290,3.0,4.0,62,0.00,,,0.00,645.00,VWS V14.01,2013-07-02 14:43:00,
2013-07-02 09:48:00,78.0,63.5,29.96,WNW,290,0.0,6.0,61,0.00,,,0.00,645.00,VWS V14.01,2013-07-02 14:48:00,
2013-07-02 09:50:00,77.9,63.4,29.96,WNW,292,7.0,9.0,61,0.00,,,0.00,654.00,VWS V14.01,2013-07-02 14:50:00,
2013-07-02 09:53:00,77.9,63.4,29.97,West,276,0.0,7.0,61,0.00,,,0.00,668.00,VWS V14.01,2013-07-02 14:53:00,
2013-07-02 09:58:00,78.5,64.0,29.96,WSW,257,2.0,8.0,61,0.00,,,0.00,693.00,VWS V14.01,2013-07-02 14:58:00,
2013-07-02 10:00:00,78.7,63.7,29.96,WNW,295,0.0,8.0,60,0.00,,,0.00,698.00,VWS V14.01,2013-07-02 15:00:00,
2013-07-02 10:03:00,79.1,64.0,29.96,WNW,289,5.0,5.0,60,0.00,,,0.00,715.00,VWS V14.01,2013-07-02 15:03:00,
2013-07-02 10:08:00,79.3,64.2,29.96,West,278,0.0,7.0,60,0.00,,,0.00,729.00,VWS V14.01,2013-07-02 15:08:00,
2013-07-02 10:10:00,79.3,64.2,29.96,WNW,287,2.0,7.0,60,0.00,,,0.00,714.00,VWS V14.01,2013-07-02 15:10:00,
2013-07-02 10:13:00,79.3,64.7,29.96,SW,232,0.0,3.0,61,0.00,,,0.00,742.00,VWS V14.01,2013-07-02 15:13:00,
2013-07-02 10:18:00,79.6,64.5,29.96,WNW,293,4.0,6.0,60,0.00,,,0.00,756.00,VWS V14.01,2013-07-02 15:18:00,
2013-07-02 10:20:00,79.8,64.2,29.96,SW,225,3.0,7.0,59,0.00,,,0.00,763.00,VWS V14.01,2013-07-02 15:20:00,
2013-07-02 10:22:00,79.8,64.7,29.96,West,271,4.0,7.0,60,0.00,,,0.00,777.00,VWS V14.01,2013-07-02 15:22:00,
2013-07-02 10:31:00,80.2,64.6,29.96,WNW,292,3.0,3.0,59,0.00,,,0.00,357.00,VWS V14.01,2013-07-02 15:31:00,
2013-07-02 10:36:00,80.1,65.0,29.96,West,269,0.0,8.0,60,0.00,,,0.00,809.00,VWS V14.01,2013-07-02 15:36:00,
2013-07-02 10:40:00,80.4,65.3,29.96,WNW,294,7.0,9.0,60,0.00,,,0.00,802.00,VWS V14.01,2013-07-02 15:40:00,
2013-07-02 10:41:00,80.3,64.7,29.96,WNW,303,6.0,8.0,59,0.00,,,0.00,802.00,VWS V14.01,2013-07-02 15:41:00,
2013-07-02 10:46:00,80.5,65.3,29.96,NW,313,6.0,8.0,60,0.00,,,0.00,831.00,VWS V14.01,2013-07-02 15:46:00,
2013-07-02 10:50:00,80.6,65.0,29.96,WNW,296,7.0,11.0,59,0.00,,,0.00,828.00,VWS V14.01,2013-07-02 15:50:00,
2013-07-02 10:51:00,80.5,65.3,29.96,WNW,295,7.0,10.0,60,0.00,,,0.00,826.00,VWS V14.01,2013-07-02 15:51:00,
2013-07-02 10:57:00,80.8,65.6,29.96,WNW,282,3.0,3.0,60,0.00,,,0.00,884.00,VWS V14.01,2013-07-02 15:57:00,
2013-07-02 11:02:00,80.5,65.3,29.96,West,279,5.0,11.0,60,0.00,,,0.00,865.00,VWS V14.01,2013-07-02 16:02:00,
2013-07-02 11:07:00,80.7,65.1,29.96,West,281,7.0,12.0,59,0.00,,,0.00,875.00,VWS V14.01,2013-07-02 16:07:00,
2013-07-02 11:12:00,80.7,65.1,29.96,West,264,4.0,15.0,59,0.00,,,0.00,951.00,VWS V14.01,2013-07-02 16:12:00,
2013-07-02 11:17:00,81.5,65.8,29.96,WNW,292,8.0,15.0,59,0.00,,,0.00,918.00,VWS V14.01,2013-07-02 16:17:00,
2013-07-02 11:22:00,82.0,64.8,29.96,WNW,283,5.0,8.0,56,0.00,,,0.00,916.00,VWS V14.01,2013-07-02 16:22:00,
2013-07-02 11:28:00,82.0,63.7,29.96,SW,215,2.0,10.0,54,0.00,,,0.00,921.00,VWS V14.01,2013-07-02 16:28:00,
2013-07-02 11:33:00,82.2,63.9,29.96,WNW,295,5.0,8.0,54,0.00,,,0.00,974.00,VWS V14.01,2013-07-02 16:33:00,
2013-07-02 11:38:00,82.7,64.4,29.96,WNW,296,5.0,12.0,54,0.00,,,0.00,969.00,VWS V14.01,2013-07-02 16:38:00,
2013-07-02 11:43:00,82.9,64.6,29.96,West,279,5.0,14.0,54,0.00,,,0.00,947.00,VWS V14.01,2013-07-02 16:43:00,
2013-07-02 11:48:00,82.1,62.8,29.96,WNW,294,8.0,14.0,52,0.00,,,0.00,937.00,VWS V14.01,2013-07-02 16:48:00,
2013-07-02 11:53:00,82.3,62.9,29.96,WNW,284,8.0,15.0,52,0.00,,,0.00,965.00,VWS V14.01,2013-07-02 16:53:00,
2013-07-02 11:58:00,82.3,62.9,29.96,WNW,292,5.0,15.0,52,0.00,,,0.00,958.00,VWS V14.01,2013-07-02 16:58:00,
2013-07-02 12:02:00,82.1,62.8,29.96,WNW,283,4.0,10.0,52,0.00,,,0.00,988.00,VWS V14.01,2013-07-02 17:02:00,
2013-07-02 12:07:00,82.5,63.1,29.96,WNW,290,6.0,10.0,52,0.00,,,0.00,1004.00,VWS V14.01,2013-07-02 17:07:00,
2013-07-02 12:12:00,83.0,64.7,29.96,WNW,296,8.0,9.0,54,0.00,,,0.00,1011.00,VWS V14.01,2013-07-02 17:12:00,
2013-07-02 12:17:00,82.9,64.0,29.96,WNW,284,10.0,12.0,53,0.00,,,0.00,1002.00,VWS V14.01,2013-07-02 17:17:00,
2013-07-02 12:22:00,82.3,64.0,29.96,West,259,0.0,9.0,54,0.00,,,0.00,276.00,VWS V14.01,2013-07-02 17:22:00,
2013-07-02 12:27:00,82.7,63.8,29.96,WNW,290,4.0,13.0,53,0.00,,,0.00,1067.00,VWS V14.01,2013-07-02 17:27:00,
2013-07-02 12:32:00,83.0,64.1,29.96,WSW,239,6.0,8.0,53,0.00,,,0.00,1090.00,VWS V14.01,2013-07-02 17:32:00,
2013-07-02 12:37:00,82.9,62.9,29.96,WNW,290,5.0,10.0,51,0.00,,,0.00,262.00,VWS V14.01,2013-07-02 17:37:00,
2013-07-02 12:42:00,82.1,63.3,29.96,West,279,4.0,6.0,53,0.00,,,0.00,327.00,VWS V14.01,2013-07-02 17:42:00,
2013-07-02 12:47:00,82.4,62.5,29.96,WNW,284,3.0,10.0,51,0.00,,,0.00,1049.00,VWS V14.01,2013-07-02 17:47:00,
2013-07-02 12:52:00,82.5,63.7,29.96,WNW,287,2.0,8.0,53,0.00,,,0.00,1078.00,VWS V14.01,2013-07-02 17:52:00,
2013-07-02 12:58:00,82.3,62.9,29.96,West,265,4.0,12.0,52,0.00,,,0.00,297.00,VWS V14.01,2013-07-02 17:58:00,
2013-07-02 13:03:00,82.1,62.2,29.96,WNW,296,8.0,9.0,51,0.00,,,0.00,308.00,VWS V14.01,2013-07-02 18:03:00,
2013-07-02 13:08:00,82.6,63.8,29.96,NNW,338,8.0,13.0,53,0.00,,,0.00,1086.00,VWS V14.01,2013-07-02 18:08:00,
2013-07-02 13:13:00,82.4,63.0,29.96,West,281,7.0,9.0,52,0.00,,,0.00,995.00,VWS V14.01,2013-07-02 18:13:00,
2013-07-02 13:18:00,83.5,64.0,29.96,West,261,3.0,9.0,52,0.00,,,0.00,1092.00,VWS V14.01,2013-07-02 18:18:00,
2013-07-02 13:23:00,84.1,63.5,29.96,WNW,288,2.0,8.0,50,0.00,,,0.00,1027.00,VWS V14.01,2013-07-02 18:23:00,
2013-07-02 13:28:00,83.8,63.8,29.95,WNW,294,8.0,11.0,51,0.00,,,0.00,376.00,VWS V14.01,2013-07-02 18:28:00,
2013-07-02 13:33:00,83.1,63.1,29.95,West,260,1.0,9.0,51,0.00,,,0.00,316.00,VWS V14.01,2013-07-02 18:33:00,
2013-07-02 13:38:00,82.9,63.5,29.95,WNW,299,7.0,9.0,52,0.00,,,0.00,299.00,VWS V14.01,2013-07-02 18:38:00,
2013-07-02 13:42:00,83.2,62.1,29.96,WNW,290,8.0,12.0,49,0.00,,,0.00,1055.00,VWS V14.01,2013-07-02 18:42:00,
2013-07-02 13:48:00,83.7,64.2,29.95,WNW,292,3.0,12.0,52,0.00,,,0.00,1078.00,VWS V14.01,2013-07-02 18:48:00,
2013-07-02 13:53:00,83.7,64.2,29.95,West,280,3.0,8.0,52,0.00,,,0.00,1085.00,VWS V14.01,2013-07-02 18:53:00,
2013-07-02 13:58:00,83.7,62.5,29.95,WSW,246,0.0,8.0,49,0.00,,,0.00,258.00,VWS V14.01,2013-07-02 18:58:00,
2013-07-02 14:03:00,83.2,63.2,29.95,WNW,296,4.0,8.0,51,0.00,,,0.00,424.00,VWS V14.01,2013-07-02 19:03:00,
2013-07-02 14:08:00,83.1,63.1,29.95,West,273,2.0,9.0,51,0.00,,,0.00,318.00,VWS V14.01,2013-07-02 19:08:00,
2013-07-02 14:13:00,82.7,63.3,29.95,West,280,0.0,4.0,52,0.00,,,0.00,432.00,VWS V14.01,2013-07-02 19:13:00,
2013-07-02 14:18:00,83.0,64.1,29.95,WNW,292,4.0,5.0,53,0.00,,,0.00,297.00,VWS V14.01,2013-07-02 19:18:00,
2013-07-02 14:23:00,83.4,64.5,29.95,NW,308,7.0,9.0,53,0.00,,,0.00,1044.00,VWS V14.01,2013-07-02 19:23:00,
2013-07-02 14:28:00,84.1,64.0,29.95,WNW,284,5.0,9.0,51,0.00,,,0.00,993.00,VWS V14.01,2013-07-02 19:28:00,
2013-07-02 14:33:00,84.0,63.4,29.94,NW,316,1.0,10.0,50,0.00,,,0.00,1014.00,VWS V14.01,2013-07-02 19:33:00,
2013-07-02 14:38:00,84.2,63.6,29.95,WSW,242,3.0,10.0,50,0.00,,,0.00,1051.00,VWS V14.01,2013-07-02 19:38:00,
2013-07-02 14:43:00,85.2,63.9,29.94,WNW,291,10.0,13.0,49,0.00,,,0.00,1062.00,VWS V14.01,2013-07-02 19:43:00,
2013-07-02 14:48:00,85.4,62.3,29.95,WSW,246,2.0,13.0,46,0.00,,,0.00,367.00,VWS V14.01,2013-07-02 19:48:00,
2013-07-02 14:53:00,84.9,62.4,29.94,WSW,245,2.0,7.0,47,0.00,,,0.00,1035.00,VWS V14.01,2013-07-02 19:53:00,
2013-07-02 14:58:00,85.4,62.9,29.95,SSW,211,5.0,10.0,47,0.00,,,0.00,1009.00,VWS V14.01,2013-07-02 19:58:00,
2013-07-02 15:03:00,85.3,62.8,29.95,WNW,296,3.0,10.0,47,0.00,,,0.00,998.00,VWS V14.01,2013-07-02 20:03:00,
2013-07-02 15:08:00,85.2,63.9,29.95,WNW,294,7.0,10.0,49,0.00,,,0.00,944.00,VWS V14.01,2013-07-02 20:08:00,
2013-07-02 15:13:00,85.6,63.7,29.95,SW,232,0.0,7.0,48,0.00,,,0.00,944.00,VWS V14.01,2013-07-02 20:13:00,
2013-07-02 15:18:00,85.4,64.1,29.95,WNW,286,8.0,12.0,49,0.00,,,0.00,925.00,VWS V14.01,2013-07-02 20:18:00,
2013-07-02 15:23:00,85.8,63.3,29.95,WNW,287,4.0,6.0,47,0.00,,,0.00,909.00,VWS V14.01,2013-07-02 20:23:00,
2013-07-02 15:28:00,86.3,63.7,29.94,WNW,286,5.0,10.0,47,0.00,,,0.00,881.00,VWS V14.01,2013-07-02 20:28:00,
2013-07-02 15:33:00,86.5,64.5,29.95,WNW,297,6.0,9.0,48,0.00,,,0.00,881.00,VWS V14.01,2013-07-02 20:33:00,
2013-07-02 15:38:00,85.4,62.3,29.94,WNW,294,8.0,11.0,46,0.00,,,0.00,851.00,VWS V14.01,2013-07-02 20:38:00,
2013-07-02 15:43:00,84.5,63.8,29.94,WSW,238,0.0,6.0,50,0.00,,,0.00,826.00,VWS V14.01,2013-07-02 20:43:00,
2013-07-02 15:48:00,85.2,63.3,29.94,WNW,287,0.0,10.0,48,0.00,,,0.00,265.00,VWS V14.01,2013-07-02 20:48:00,
2013-07-02 15:53:00,85.0,63.1,29.94,WNW,296,9.0,11.0,48,0.00,,,0.00,782.00,VWS V14.01,2013-07-02 20:53:00,
2013-07-02 15:58:00,85.2,63.3,29.94,NW,306,5.0,11.0,48,0.00,,,0.00,846.00,VWS V14.01,2013-07-02 20:58:00,
2013-07-02 16:03:00,85.5,62.4,29.94,WSW,250,1.0,7.0,46,0.00,,,0.00,775.00,VWS V14.01,2013-07-02 21:03:00,
2013-07-02 16:08:00,86.0,64.0,29.94,WSW,248,3.0,8.0,48,0.00,,,0.00,715.00,VWS V14.01,2013-07-02 21:08:00,
2013-07-02 16:13:00,86.0,64.0,29.93,WSW,252,4.0,7.0,48,0.00,,,0.00,751.00,VWS V14.01,2013-07-02 21:13:00,
2013-07-02 16:18:00,85.2,63.9,29.93,NW,304,1.0,9.0,49,0.00,,,0.00,745.00,VWS V14.01,2013-07-02 21:18:00,
2013-07-02 16:23:00,84.5,63.3,29.93,WSW,254,3.0,7.0,49,0.00,,,0.00,729.00,VWS V14.01,2013-07-02 21:23:00,
2013-07-02 16:28:00,85.0,64.3,29.93,West,267,6.0,7.0,50,0.00,,,0.00,694.00,VWS V14.01,2013-07-02 21:28:00,
2013-07-02 16:33:00,85.5,63.6,29.94,WNW,285,7.0,8.0,48,0.00,,,0.00,684.00,VWS V14.01,2013-07-02 21:33:00,
2013-07-02 16:38:00,85.3,63.4,29.94,WNW,302,3.0,9.0,48,0.00,,,0.00,679.00,VWS V14.01,2013-07-02 21:38:00,
2013-07-02 16:43:00,85.4,65.2,29.94,WNW,295,1.0,3.0,51,0.00,,,0.00,652.00,VWS V14.01,2013-07-02 21:43:00,
2013-07-02 16:48:00,85.7,63.8,29.94,WNW,289,4.0,10.0,48,0.00,,,0.00,638.00,VWS V14.01,2013-07-02 21:48:00,
2013-07-02 16:53:00,85.6,63.7,29.94,WNW,296,7.0,9.0,48,0.00,,,0.00,638.00,VWS V14.01,2013-07-02 21:53:00,
2013-07-02 16:58:00,85.7,63.8,29.94,WNW,294,0.0,9.0,48,0.00,,,0.00,613.00,VWS V14.01,2013-07-02 21:58:00,
2013-07-02 17:03:00,85.9,63.3,29.93,WNW,294,4.0,10.0,47,0.00,,,0.00,584.00,VWS V14.01,2013-07-02 22:03:00,
2013-07-02 17:08:00,85.8,63.9,29.94,WSW,257,2.0,10.0,48,0.00,,,0.00,568.00,VWS V14.01,2013-07-02 22:08:00,
2013-07-02 17:13:00,85.5,63.0,29.93,WSW,252,2.0,7.0,47,0.00,,,0.00,536.00,VWS V14.01,2013-07-02 22:13:00,
2013-07-02 17:18:00,85.1,63.2,29.93,WSW,253,3.0,8.0,48,0.00,,,0.00,487.00,VWS V14.01,2013-07-02 22:18:00,
2013-07-02 17:23:00,85.1,63.8,29.93,WNW,294,7.0,11.0,49,0.00,,,0.00,374.00,VWS V14.01,2013-07-02 22:23:00,
2013-07-02 17:28:00,84.7,63.5,29.93,WNW,294,5.0,11.0,49,0.00,,,0.00,179.00,VWS V14.01,2013-07-02 22:28:00,
2013-07-02 17:33:00,84.2,63.6,29.93,WSW,252,1.0,4.0,50,0.00,,,0.00,471.00,VWS V14.01,2013-07-02 22:33:00,
2013-07-02 17:38:00,84.3,64.2,29.93,WSW,247,1.0,5.0,51,0.00,,,0.00,452.00,VWS V14.01,2013-07-02 22:38:00,
2013-07-02 17:43:00,84.3,62.5,29.93,WNW,300,6.0,8.0,48,0.00,,,0.00,429.00,VWS V14.01,2013-07-02 22:43:00,
2013-07-02 17:48:00,84.4,63.2,29.93,WNW,290,0.0,8.0,49,0.00,,,0.00,413.00,VWS V14.01,2013-07-02 22:48:00,
2013-07-02 17:53:00,84.7,64.0,29.93,West,272,1.0,7.0,50,0.00,,,0.00,396.00,VWS V14.01,2013-07-02 22:53:00,
2013-07-02 17:58:00,84.7,64.0,29.93,WSW,255,0.0,7.0,50,0.00,,,0.00,371.00,VWS V14.01,2013-07-02 22:58:00,
2013-07-02 18:03:00,84.7,64.0,29.93,SSW,213,1.0,5.0,50,0.00,,,0.00,348.00,VWS V14.01,2013-07-02 23:03:00,
2013-07-02 18:08:00,84.5,63.3,29.93,WNW,299,6.0,10.0,49,0.00,,,0.00,346.00,VWS V14.01,2013-07-02 23:08:00,
2013-07-02 18:13:00,84.4,63.8,29.93,WNW,284,2.0,5.0,50,0.00,,,0.00,334.00,VWS V14.01,2013-07-02 23:13:00,
2013-07-02 18:18:00,84.5,63.3,29.93,WNW,282,3.0,7.0,49,0.00,,,0.00,304.00,VWS V14.01,2013-07-02 23:18:00,
2013-07-02 18:23:00,84.5,63.3,29.93,West,267,6.0,6.0,49,0.00,,,0.00,294.00,VWS V14.01,2013-07-02 23:23:00,
2013-07-02 18:28:00,84.3,63.7,29.94,WSW,254,3.0,7.0,50,0.00,,,0.00,276.00,VWS V14.01,2013-07-02 23:28:00,
2013-07-02 18:29:00,84.3,63.7,29.94,WNW,283,3.0,7.0,50,0.00,,,0.00,267.00,VWS V14.01,2013-07-02 23:29:00,
2013-07-02 18:34:00,84.1,62.9,29.93,WSW,252,2.0,6.0,49,0.00,,,0.00,236.00,VWS V14.01,2013-07-02 23:34:00,
2013-07-02 18:39:00,83.6,63.0,29.94,SW,216,4.0,6.0,50,0.00,,,0.00,232.00,VWS V14.01,2013-07-02 23:39:00,
2013-07-02 18:44:00,83.2,63.2,29.94,WSW,255,2.0,4.0,51,0.00,,,0.00,230.00,VWS V14.01,2013-07-02 23:44:00,
2013-07-02 18:49:00,83.3,62.7,29.94,WSW,252,1.0,4.0,50,0.00,,,0.00,213.00,VWS V14.01,2013-07-02 23:49:00,
2013-07-02 18:54:00,83.3,63.3,29.94,WSW,252,0.0,3.0,51,0.00,,,0.00,176.00,VWS V14.01,2013-07-02 23:54:00,
2013-07-02 18:59:00,83.1,63.1,29.94,WSW,252,1.0,5.0,51,0.00,,,0.00,74.00,VWS V14.01,2013-07-02 23:59:00,
2013-07-02 19:01:00,82.9,62.9,29.95,WSW,248,5.0,5.0,51,0.00,,,0.00,120.00,VWS V14.01,2013-07-03 00:01:00,
2013-07-02 19:06:00,82.6,63.2,29.94,WSW,252,0.0,5.0,52,0.00,,,0.00,137.00,VWS V14.01,2013-07-03 00:06:00,
2013-07-02 19:11:00,82.4,63.0,29.95,WSW,244,1.0,3.0,52,0.00,,,0.00,58.00,VWS V14.01,2013-07-03 00:11:00,
2013-07-02 19:16:00,82.1,63.3,29.95,WSW,247,2.0,3.0,53,0.00,,,0.00,37.00,VWS V14.01,2013-07-03 00:16:00,
2013-07-02 19:21:00,81.6,62.8,29.95,WSW,244,0.0,2.0,53,0.00,,,0.00,28.00,VWS V14.01,2013-07-03 00:21:00,
2013-07-02 19:23:00,81.4,62.6,29.95,West,265,0.0,3.0,53,0.00,,,0.00,26.00,VWS V14.01,2013-07-03 00:23:00,
2013-07-02 19:24:00,81.3,63.1,29.95,West,264,0.0,3.0,54,0.00,,,0.00,25.00,VWS V14.01,2013-07-03 00:24:00,
2013-07-02 19:28:00,80.9,62.7,29.95,West,264,1.0,3.0,54,0.00,,,0.00,21.00,VWS V14.01,2013-07-03 00:28:00,
2013-07-02 19:33:00,80.4,62.8,29.95,West,259,0.0,2.0,55,0.00,,,0.00,19.00,VWS V14.01,2013-07-03 00:33:00,
2013-07-02 19:38:00,80.1,63.0,29.95,West,259,0.0,2.0,56,0.00,,,0.00,16.00,VWS V14.01,2013-07-03 00:38:00,
2013-07-02 19:43:00,79.8,62.7,29.95,West,259,0.0,3.0,56,0.00,,,0.00,14.00,VWS V14.01,2013-07-03 00:43:00,
2013-07-02 19:48:00,79.5,63.0,29.95,West,259,1.0,3.0,57,0.00,,,0.00,11.00,VWS V14.01,2013-07-03 00:48:00,
2013-07-02 19:53:00,79.2,63.2,29.95,West,259,0.0,1.0,58,0.00,,,0.00,9.00,VWS V14.01,2013-07-03 00:53:00,
2013-07-02 19:58:00,78.9,63.4,29.95,West,259,0.0,2.0,59,0.00,,,0.00,7.00,VWS V14.01,2013-07-03 00:58:00,
2013-07-02 20:00:00,78.8,63.3,29.95,West,259,0.0,2.0,59,0.00,,,0.00,7.00,VWS V14.01,2013-07-03 01:00:00,
2013-07-02 20:03:00,78.7,63.2,29.95,West,259,1.0,2.0,59,0.00,,,0.00,5.00,VWS V14.01,2013-07-03 01:03:00,
2013-07-02 20:08:00,78.4,63.4,29.95,West,259,0.0,3.0,60,0.00,,,0.00,0.00,VWS V14.01,2013-07-03 01:08:00,
2013-07-02 20:09:00,78.3,63.3,29.96,West,260,0.0,3.0,60,0.00,,,0.00,0.00,VWS V14.01,2013-07-03 01:09:00,
2013-07-02 20:14:00,78.1,63.6,29.96,WSW,256,0.0,1.0,61,0.00,,,0.00,0.00,VWS V14.01,2013-07-03 01:14:00,
2013-07-02 20:19:00,77.9,63.8,29.96,WSW,257,0.0,2.0,62,0.00,,,0.00,0.00,VWS V14.01,2013-07-03 01:19:00,
2013-07-02 20:24:00,77.8,63.8,29.95,WNW,296,4.0,10.0,62,0.00,,,0.00,0.00,VWS V14.01,2013-07-03 01:24:00,
2013-07-02 20:26:00,77.7,64.1,29.96,WNW,298,6.0,11.0,63,0.00,,,0.00,0.00,VWS V14.01,2013-07-03 01:26:00,
2013-07-02 20:31:00,77.2,64.5,29.97,NW,311,4.0,6.0,65,0.00,,,0.00,0.00,VWS V14.01,2013-07-03 01:31:00,
2013-07-02 20:36:00,77.0,64.3,29.97,NW,305,3.0,9.0,65,0.00,,,0.00,0.00,VWS V14.01,2013-07-03 01:36:00,
2013-07-02 20:41:00,76.8,64.6,29.97,North,349,3.0,7.0,66,0.00,,,0.00,0.00,VWS V14.01,2013-07-03 01:41:00,
2013-07-02 20:46:00,76.6,64.8,29.97,NW,322,6.0,9.0,67,0.00,,,0.00,0.00,VWS V14.01,2013-07-03 01:46:00,
2013-07-02 20:49:00,76.4,64.6,29.97,NW,324,3.0,9.0,67,0.00,,,0.00,0.00,VWS V14.01,2013-07-03 01:49:00,
2013-07-02 20:50:00,76.3,65.0,29.97,NNE,13,2.0,9.0,68,0.00,,,0.00,0.00,VWS V14.01,2013-07-03 01:50:00,
2013-07-02 20:55:00,75.7,64.4,29.97,NNE,28,2.0,10.0,68,0.00,,,0.00,0.00,VWS V14.01,2013-07-03 01:55:00,
2013-07-02 21:00:00,75.3,64.8,29.98,NE,40,0.0,4.0,70,0.00,,,0.00,0.00,VWS V14.01,2013-07-03 02:00:00,
2013-07-02 21:05:00,74.7,65.1,29.98,North,360,1.0,6.0,72,0.00,,,0.00,0.00,VWS V14.01,2013-07-03 02:05:00,
2013-07-02 21:10:00,74.2,65.0,29.98,NNW,332,3.0,4.0,73,0.00,,,0.00,0.00,VWS V14.01,2013-07-03 02:10:00,
2013-07-02 21:15:00,73.7,64.9,29.98,NNW,337,0.0,7.0,74,0.00,,,0.00,0.00,VWS V14.01,2013-07-03 02:15:00,
2013-07-02 21:21:00,73.3,64.5,29.98,NNE,24,0.0,2.0,74,0.00,,,0.00,0.00,VWS V14.01,2013-07-03 02:21:00,
2013-07-02 21:26:00,73.0,64.6,29.99,NNE,15,3.0,6.0,75,0.00,,,0.00,0.00,VWS V14.01,2013-07-03 02:26:00,
2013-07-02 21:31:00,72.8,64.4,29.99,North,355,3.0,4.0,75,0.00,,,0.00,0.00,VWS V14.01,2013-07-03 02:31:00,
2013-07-02 21:32:00,72.8,64.8,29.99,North,350,4.0,4.0,76,0.00,,,0.00,0.00,VWS V14.01,2013-07-03 02:32:00,
2013-07-02 21:37:00,72.8,64.8,30.00,WNW,290,4.0,6.0,76,0.00,,,0.00,0.00,VWS V14.01,2013-07-03 02:37:00,
2013-07-02 21:42:00,72.8,64.8,30.00,WNW,290,4.0,4.0,76,0.00,,,0.00,0.00,VWS V14.01,2013-07-03 02:42:00,
2013-07-02 21:46:00,72.7,65.1,30.00,WNW,289,0.0,4.0,77,0.00,,,0.00,0.00,VWS V14.01,2013-07-03 02:46:00,
2013-07-02 21:51:00,72.7,65.1,30.00,WNW,290,0.0,1.0,77,0.00,,,0.00,0.00,VWS V14.01,2013-07-03 02:51:00,
2013-07-02 21:56:00,72.6,65.3,30.00,North,349,1.0,5.0,78,0.00,,,0.00,0.00,VWS V14.01,2013-07-03 02:56:00,
2013-07-02 22:01:00,72.6,65.0,30.00,North,355,0.0,1.0,77,0.00,,,0.00,0.00,VWS V14.01,2013-07-03 03:01:00,
2013-07-02 22:02:00,72.6,65.0,30.00,North,355,1.0,3.0,77,0.00,,,0.00,0.00,VWS V14.01,2013-07-03 03:02:00,
2013-07-02 22:07:00,72.5,64.9,30.00,North,355,1.0,3.0,77,0.00,,,0.00,0.00,VWS V14.01,2013-07-03 03:07:00,
2013-07-02 22:12:00,72.5,65.3,30.00,North,355,0.0,1.0,78,0.00,,,0.00,0.00,VWS V14.01,2013-07-03 03:12:00,
2013-07-02 22:17:00,72.4,65.2,30.00,North,355,0.0,1.0,78,0.00,,,0.00,0.00,VWS V14.01,2013-07-03 03:17:00,
2013-07-02 22:21:00,72.3,65.4,30.00,North,355,0.0,1.0,79,0.00,,,0.00,0.00,VWS V14.01,2013-07-03 03:21:00,
2013-07-02 22:26:00,72.1,65.2,30.00,North,355,0.0,1.0,79,0.00,,,0.00,0.00,VWS V14.01,2013-07-03 03:26:00,
2013-07-02 22:31:00,72.0,65.5,30.00,North,355,0.0,1.0,80,0.00,,,0.00,0.00,VWS V14.01,2013-07-03 03:31:00,
2013-07-02 22:35:00,71.8,65.3,30.00,North,355,0.0,1.0,80,0.00,,,0.00,0.00,VWS V14.01,2013-07-03 03:35:00,
2013-07-02 22:39:00,71.6,65.1,30.00,North,355,0.0,1.0,80,0.00,,,0.00,0.00,VWS V14.01,2013-07-03 03:39:00,
2013-07-02 22:44:00,71.4,65.3,30.00,North,355,0.0,0.0,81,0.00,,,0.00,0.00,VWS V14.01,2013-07-03 03:44:00,
2013-07-02 22:49:00,71.3,65.2,30.00,North,355,0.0,2.0,81,0.00,,,0.00,0.00,VWS V14.01,2013-07-03 03:49:00,
2013-07-02 22:54:00,71.2,65.4,30.00,North,355,0.0,0.0,82,0.00,,,0.00,0.00,VWS V14.01,2013-07-03 03:54:00,
2013-07-02 22:59:00,71.0,65.2,30.00,North,355,0.0,1.0,82,0.00,,,0.00,0.00,VWS V14.01,2013-07-03 03:59:00,
2013-07-02 23:01:00,71.0,65.2,30.00,North,355,0.0,0.0,82,0.00,,,0.00,0.00,VWS V14.01,2013-07-03 04:01:00,
2013-07-02 23:03:00,70.9,65.1,30.00,North,355,0.0,1.0,82,0.00,,,0.00,0.00,VWS V14.01,2013-07-03 04:03:00,
2013-07-02 23:04:00,70.9,65.1,30.00,North,355,0.0,1.0,82,0.00,,,0.00,0.00,VWS V14.01,2013-07-03 04:04:00,
2013-07-02 23:09:00,70.7,65.3,30.00,North,355,0.0,1.0,83,0.00,,,0.00,0.00,VWS V14.01,2013-07-03 04:09:00,
2013-07-02 23:14:00,70.6,65.2,30.00,North,355,0.0,0.0,83,0.00,,,0.00,0.00,VWS V14.01,2013-07-03 04:14:00,
2013-07-02 23:19:00,70.4,65.3,30.00,North,355,0.0,1.0,84,0.00,,,0.00,0.00,VWS V14.01,2013-07-03 04:19:00,
2013-07-02 23:24:00,70.3,65.2,30.00,North,355,0.0,0.0,84,0.00,,,0.00,0.00,VWS V14.01,2013-07-03 04:24:00,
2013-07-02 23:29:00,70.2,65.1,30.00,North,355,0.0,0.0,84,0.00,,,0.00,0.00,VWS V14.01,2013-07-03 04:29:00,
2013-07-02 23:31:00,70.1,65.4,30.00,North,355,0.0,0.0,85,0.00,,,0.00,0.00,VWS V14.01,2013-07-03 04:31:00,
2013-07-02 23:32:00,70.1,65.4,30.00,North,355,0.0,0.0,85,0.00,,,0.00,0.00,VWS V14.01,2013-07-03 04:32:00,
2013-07-02 23:37:00,70.0,65.3,30.01,North,355,0.0,1.0,85,0.00,,,0.00,0.00,VWS V14.01,2013-07-03 04:37:00,
2013-07-02 23:42:00,69.9,65.2,30.01,North,355,0.0,0.0,85,0.00,,,0.00,0.00,VWS V14.01,2013-07-03 04:42:00,
2013-07-02 23:45:00,69.8,65.1,30.01,North,355,0.0,1.0,85,0.00,,,0.00,0.00,VWS V14.01,2013-07-03 04:45:00,
2013-07-02 23:46:00,69.8,65.1,30.01,North,355,0.0,1.0,85,0.00,,,0.00,0.00,VWS V14.01,2013-07-03 04:46:00,
2013-07-02 23:51:00,69.6,65.2,30.01,North,355,0.0,0.0,86,0.00,,,0.00,0.00,VWS V14.01,2013-07-03 04:51:00,
2013-07-02 23:53:00,69.6,65.2,30.00,North,355,0.0,0.0,86,0.00,,,0.00,0.00,VWS V14.01,2013-07-03 04:53:00,
2013-07-02 23:58:00,69.5,65.1,30.00,North,355,0.0,2.0,86,0.00,,,0.00,0.00,VWS V14.01,2013-07-03 04:58:00,